Location: Oberstdorf
(47.4188°N, 10.2969°E)
Time: 14:29:53
(UTC+01:00)

ISS - Pass Details

Date: 13 January 2018
Orbit: 402 x 406 km, 51.6° (Epoch: 16 January)

Event Time Altitude Azimuth Distance (km) Brightness Sun altitude
Exits shadow 05:34:40 34° 110° (ESE) 685 -2.2 -24.4°
Drops below altitude 10° 05:36:41 10° 113° (ESE) 1,461 0.0 -24.1°
Sets 05:38:45 0° 114° (ESE) 2,320 1.2 -23.7°
